This demonstration page uses our WeatherBlox Daily Observations layout. Learn more.

Left ArrowRight Arrow

Hourly Observations for April 18, 2016

Temp ( °F °C ) Dew Point ( °F °C ) Humidity (%) Winds ( mph kmh ) Pressure ( in mb ) Visibility ( mi km ) Precip ( " mm )
12:54 am 00:54 Cloudy with Rain 61 16.1 59 15 93 93 E 8 13 30.16 1021 4 6 0.02 0.51
1:05 am 01:05 Cloudy with Light Rain 61 16.1 59 15 93 93 E 7 11 30.18 1022 4 6 0.01 0.25
1:15 am 01:15 Cloudy with Light Rain 61 16 59 15 94 94 E 7 11 30.18 1022 5 8 0.00 0.00
1:22 am 01:22 Cloudy with Light Rain 61 16.1 59 15 93 93 E 7 11 30.18 1022 8 13 0.02 0.51
1:31 am 01:31 Cloudy with Light Rain 61 16.1 59 15 93 93 E 7 11 30.18 1022 8 13 0.02 0.51
1:54 am 01:54 Cloudy with Light Rain 61 16.1 59 15 93 93 E 5 7 30.15 1021 6 10 0.02 0.51
2:15 am 02:15 Cloudy with Light Rain 61 16.1 59 15 93 93 E 9 15 30.15 1021 4 6 0.02 0.51
2:29 am 02:29 Cloudy with Mist and Fog 61 16.1 60 15.6 97 97 E 7 11 30.15 1021 6 10 0.02 0.51
2:54 am 02:54 Cloudy 61 16.1 59 15 93 93 E 8 13 30.13 1020 7 11 0.02 0.51
3:50 am 03:50 Cloudy with Light Rain 61 16 59 15 94 94 SE 10 17 30.15 1021 5 8 0.02 0.51
3:54 am 03:54 Cloudy with Light Rain 61 16.1 59 15 93 93 ESE 9 15 30.13 1020 5 8 0.02 0.51
4:44 am 04:44 Cloudy with Mist and Fog 61 16 61 16 100 100 SE 6 9 30.12 1020 6 10 0.00 0.00
4:54 am 04:54 Cloudy 61 16.1 59 15 93 93 SE 7 11 30.11 1020 7 11 0.00 0.03
5:11 am 05:11 Cloudy 61 16.1 59 15 93 93 SE 7 11 30.12 1020 7 11 0.00 0.00
5:29 am 05:29 Cloudy 61 16.1 59 15 93 93 SE 9 15 30.12 1020 8 13 0.00 0.00
5:37 am 05:37 Cloudy 61 16.1 59 15 93 93 SE 6 9 30.12 1020 7 11 0.00 0.00
5:45 am 05:45 Cloudy 61 16.1 60 15.6 97 97 SE 6 9 30.12 1020 7 11 0.00 0.00
5:54 am 05:54 Cloudy 61 16.1 60 15.6 97 97 ESE 3 6 30.11 1020 8 13 0.00 0.00
6:02 am 06:02 Cloudy 56 13.3 54 12.2 93 93 WNW 14 22 30.12 1020 9 14 0.00 0.00
6:07 am 06:07 Cloudy with Light Rain 55 12.8 52 11.1 90 90 NW 15 24 30.12 1020 10 16 0.00 0.03
6:27 am 06:27 Cloudy 53 11.7 51 10.6 93 93 NNW 15 24 30.12 1020 10 16 0.00 0.03
6:54 am 06:54 Cloudy with Heavy Rain 51 10.6 50 10 96 96 NNW 16 26 30.13 1020 3 4 0.02 0.51
7:03 am 07:03 Cloudy with Heavy Rain 52 11 50 10 94 94 NNW 16 26 30.15 1021 2 2 0.00 0.00
7:09 am 07:09 Cloudy with Heavy Rain 51 10.6 50 10 96 96 NNW 16 26 30.15 1021 2 3 0.14 3.56
7:13 am 07:13 Cloudy with Heavy Rain 51 10.6 50 10 96 96 NNW 15 24 30.15 1021 3 4 0.16 4.06
7:20 am 07:20 Cloudy with Rain 51 10.6 50 10 96 96 NNW 14 22 30.18 1022 4 6 0.18 4.57
7:52 am 07:52 Cloudy with Rain 50 10 48 9 94 94 N 15 24 30.15 1021 3 4 0.00 0.00
7:54 am 07:54 Cloudy with Heavy Rain 50 10 49 9.4 96 96 N 14 22 30.12 1020 2 3 0.25 6.35
8:09 am 08:09 Cloudy with Rain 50 10 49 9.4 96 96 NNW 13 20 30.15 1021 2 3 0.05 1.27
8:11 am 08:11 Cloudy with Light Rain 50 10 49 9.4 96 96 NNW 12 19 30.15 1021 2 3 0.05 1.27
8:20 am 08:20 Cloudy with Light Rain 50 10 48 9 94 94 WNW 8 13 30.18 1022 5 8 0.00 0.00
8:28 am 08:28 Cloudy with Rain 50 10 48 9 94 94 WNW 8 13 30.18 1022 2 3 0.00 0.00
8:54 am 08:54 Cloudy with Rain 50 10 48 8.9 93 93 WNW 12 19 30.16 1021 2 3 0.10 2.54
9:03 am 09:03 Cloudy with Heavy Rain 48 9 46 8 94 94 NW 14 22 30.18 1022 2 2 0.00 0.00
9:12 am 09:12 Cloudy with Rain 49 9.4 47 8.3 93 93 W 13 20 30.21 1023 2 3 0.11 2.79
9:25 am 09:25 Cloudy with Light Rain 48 8.9 46 7.8 93 93 NW 13 20 30.18 1022 7 11 0.14 3.56
9:45 am 09:45 Cloudy with Rain 48 8.9 45 7.2 89 89 NW 13 20 30.18 1022 5 8 0.15 3.81
9:54 am 09:54 Cloudy with Light Rain 48 8.9 46 7.8 93 93 NNW 14 22 30.16 1021 5 8 0.16 4.06
10:08 am 10:08 Cloudy with Light Rain 48 8.9 46 7.8 93 93 NNW 15 24 30.18 1022 4 6 0.02 0.51
10:54 am 10:54 Cloudy with Rain 49 9.4 47 8.3 93 93 W 8 13 30.19 1022 3 5 0.07 1.78
11:06 am 11:06 Cloudy with Rain 48 9 46 8 94 94 WSW 5 7 30.21 1023 3 4 0.00 0.00
11:10 am 11:10 Cloudy with Light Rain 48 9 46 8 94 94 SSW 6 9 30.24 1024 3 5 0.00 0.00
11:54 am 11:54 Cloudy with Light Rain 50 10 48 8.9 93 93 N 10 17 30.15 1021 10 16 0.08 2.03
12:31 pm 12:31 Cloudy 52 11.1 49 9.4 89 89 N 12 19 30.15 1021 10 16 0.00 0.03
12:54 pm 12:54 Cloudy 52 11.1 50 10 93 93 NW 7 11 30.14 1021 10 16 0.00 0.03
1:08 pm 13:08 Cloudy with Light Rain 54 12 50 10 88 88 W 10 17 30.15 1021 10 16 0.00 0.00
1:54 pm 13:54 Cloudy 53 11.7 50 10 89 89 WNW 13 20 30.17 1022 10 16 0.00 0.03
2:34 pm 14:34 Cloudy 54 12 48 9 82 82 WNW 10 17 30.18 1022 10 16 0.00 0.00
2:54 pm 14:54 Cloudy 55 12.8 50 10 83 83 W 13 20 30.18 1022 10 16 0.00 0.00
3:05 pm 15:05 Cloudy 54 12.2 49 9.4 83 83 WNW 12 19 30.18 1022 10 16 0.00 0.00
3:26 pm 15:26 Cloudy 55 13 48 9 77 77 NW 10 17 30.18 1022 10 16 0.00 0.00
3:54 pm 15:54 Cloudy 57 13.9 49 9.4 74 74 WNW 12 19 30.17 1022 10 16 0.00 0.00
4:54 pm 16:54 Cloudy 57 13.9 49 9.4 74 74 W 9 15 30.18 1022 10 16 0.00 0.00
5:54 pm 17:54 Cloudy 56 13.3 49 9.4 77 77 WNW 12 19 30.17 1022 10 16 0.00 0.00
6:54 pm 18:54 Cloudy 56 13.3 48 8.9 75 75 VRB 6 9 30.20 1023 10 16 0.00 0.00
7:54 pm 19:54 Cloudy 55 12.8 48 8.9 77 77 NW 7 11 30.20 1023 10 16 0.00 0.00
8:54 pm 20:54 Cloudy 54 12.2 48 8.9 80 80 NNW 7 11 30.22 1023 10 16 0.00 0.00
9:54 pm 21:54 Cloudy 53 11.7 48 8.9 83 83 NNW 7 11 30.24 1024 10 16 0.00 0.00
10:54 pm 22:54 Cloudy 53 11.7 47 8.3 80 80 NW 7 11 30.24 1024 10 16 0.00 0.00
11:10 pm 23:10 Cloudy 52 11 46 8 82 82 NW 8 13 30.27 1025 10 16 0.00 0.00
11:54 pm 23:54 Cloudy 52 11.1 47 8.3 83 83 WNW 6 9 30.24 1024 10 16 0.00 0.00

Powered by AerisWeather